M I D A S
Marine Information and Data Acquisition System
Tripno 462 of the Zeeleeuw from 2003-04-15 06:17:03 to 2003-04-15 13:00:05
Back to CruiseResearch ActivitiesStationsMapUnderway DataData graphs

EquipmentUnitsComments
TimeDGPSUTC
LatitudeDGPSDM.mWGS84
LongitudeDGPSDM.mWGS84
SpeedMeteo Stationm/sRelative wind speed
DirectionMeteo StationdegRelative wind direction
TemperatureMeteo Stationdeg CelciusAir temperature
PressureMeteo StationPaAtmospheric pressure
HumidityMeteo Station%Relative humidity
Missing or incorrect values are displayed as -999
Metereological data collected by the RV Zeeleeuw from 2003-04-15 06:17:03 to 2003-04-15 13:00:05
Time Latitude Longitude Speed Direction Temperature Pressure Humidity
2003-04-15 06:18 51°13.61 2°56.05 -999 -999 -999 -999 -999
2003-04-15 06:19 51°13.63 2°55.93 -999 -999 -999 -999 -999
2003-04-15 06:20 51°13.67 2°55.82 -999 -999 -999 -999 -999
2003-04-15 06:21 51°13.69 2°55.79 -999 -999 -999 -999 -999
2003-04-15 06:22 51°13.69 2°55.79 -999 -999 -999 -999 -999
2003-04-15 06:23 51°13.69 2°55.75 -999 -999 -999 -999 -999
2003-04-15 06:24 51°13.69 2°55.74 -999 -999 -999 -999 -999
2003-04-15 06:25 51°13.72 2°55.73 -999 -999 -999 -999 -999
2003-04-15 06:26 51°13.78 2°55.67 -999 -999 -999 -999 -999
2003-04-15 06:27 51°13.86 2°55.61 -999 -999 -999 -999 -999
2003-04-15 06:28 51°13.97 2°55.53 -999 -999 -999 -999 -999
2003-04-15 06:29 51°14.08 2°55.45 -999 -999 -999 -999 -999
2003-04-15 06:30 51°14.19 2°55.35 -999 -999 -999 -999 -999
2003-04-15 06:31 51°14.29 2°55.22 -999 -999 -999 -999 -999
2003-04-15 06:32 51°14.36 2°55.05 -999 -999 -999 -999 -999
2003-04-15 06:33 51°14.43 2°54.84 -999 -999 -999 -999 -999
2003-04-15 06:34 51°14.53 2°54.59 -999 -999 -999 -999 -999
2003-04-15 06:35 51°14.64 2°54.31 -999 -999 -999 -999 -999
2003-04-15 06:36 51°14.76 2°54.02 -999 -999 -999 -999 -999
2003-04-15 06:37 51°14.87 2°53.73 -999 -999 -999 -999 -999
2003-04-15 06:38 51°14.99 2°53.43 -999 -999 -999 -999 -999
2003-04-15 06:39 51°15.09 2°53.13 -999 -999 -999 -999 -999
2003-04-15 06:40 51°15.19 2°52.8 -999 -999 -999 -999 -999
2003-04-15 06:41 51°15.29 2°52.45 -999 -999 -999 -999 -999
2003-04-15 06:42 51°15.34 2°52.06 -999 -999 -999 -999 -999
2003-04-15 06:43 51°15.35 2°51.66 -999 -999 -999 -999 -999
2003-04-15 06:44 51°15.33 2°51.25 -999 -999 -999 -999 -999
2003-04-15 06:45 51°15.31 2°50.84 -999 -999 -999 -999 -999
2003-04-15 06:46 51°15.27 2°50.43 -999 -999 -999 -999 -999
2003-04-15 06:47 51°15.23 2°50.03 -999 -999 -999 -999 -999
2003-04-15 06:48 51°15.18 2°49.62 -999 -999 -999 -999 -999
2003-04-15 06:49 51°15.13 2°49.22 -999 -999 -999 -999 -999
2003-04-15 06:50 51°15.08 2°48.82 -999 -999 -999 -999 -999
2003-04-15 06:51 51°15.03 2°48.42 -999 -999 -999 -999 -999
2003-04-15 06:52 51°14.98 2°48.02 -999 -999 -999 -999 -999
2003-04-15 06:53 51°14.93 2°47.62 -999 -999 -999 -999 -999
2003-04-15 06:54 51°14.89 2°47.23 -999 -999 -999 -999 -999
2003-04-15 06:55 51°14.84 2°46.84 -999 -999 -999 -999 -999
2003-04-15 06:56 51°14.79 2°46.46 -999 -999 -999 -999 -999
2003-04-15 06:57 51°14.76 2°46.09 -999 -999 -999 -999 -999
2003-04-15 06:58 51°14.72 2°45.71 -999 -999 -999 -999 -999
2003-04-15 06:59 51°14.68 2°45.32 -999 -999 -999 -999 -999
2003-04-15 07:00 51°14.63 2°44.92 -999 -999 -999 -999 -999
2003-04-15 07:01 51°14.58 2°44.52 -999 -999 -999 -999 -999
2003-04-15 07:02 51°14.53 2°44.11 -999 -999 -999 -999 -999
2003-04-15 07:03 51°14.47 2°43.71 -999 -999 -999 -999 -999
2003-04-15 07:04 51°14.42 2°43.31 -999 -999 -999 -999 -999
2003-04-15 07:05 51°14.36 2°42.9 -999 -999 -999 -999 -999
2003-04-15 07:06 51°14.28 2°42.51 -999 -999 -999 -999 -999
2003-04-15 07:07 51°14.19 2°42.12 -999 -999 -999 -999 -999
2003-04-15 07:08 51°14.11 2°41.72 -999 -999 -999 -999 -999
2003-04-15 07:09 51°14.05 2°41.38 -999 -999 -999 -999 -999
2003-04-15 07:10 51°14.1 2°41.25 -999 -999 -999 -999 -999
2003-04-15 07:11 51°14.15 2°41.25 -999 -999 -999 -999 -999
2003-04-15 07:12 51°14.15 2°41.25 -999 -999 -999 -999 -999
2003-04-15 07:13 51°14.15 2°41.25 -999 -999 -999 -999 -999
2003-04-15 07:14 51°14.14 2°41.27 -999 -999 -999 -999 -999
2003-04-15 07:15 51°14.14 2°41.29 -999 -999 -999 -999 -999
2003-04-15 07:16 51°14.14 2°41.31 -999 -999 -999 -999 -999
2003-04-15 07:17 51°14.13 2°41.34 -999 -999 -999 -999 -999
2003-04-15 07:18 51°14.12 2°41.37 -999 -999 -999 -999 -999
2003-04-15 07:19 51°14.11 2°41.39 -999 -999 -999 -999 -999
2003-04-15 07:20 51°14.09 2°41.39 -999 -999 -999 -999 -999
2003-04-15 07:21 51°14.08 2°41.39 -999 -999 -999 -999 -999
2003-04-15 07:22 51°14.07 2°41.37 -999 -999 -999 -999 -999
2003-04-15 07:23 51°14.06 2°41.35 -999 -999 -999 -999 -999
2003-04-15 07:24 51°14.05 2°41.32 -999 -999 -999 -999 -999
2003-04-15 07:25 51°14.04 2°41.28 -999 -999 -999 -999 -999
2003-04-15 07:26 51°14.03 2°41.25 -999 -999 -999 -999 -999
2003-04-15 07:27 51°14.03 2°41.23 -999 -999 -999 -999 -999
2003-04-15 07:28 51°14.04 2°41.21 -999 -999 -999 -999 -999
2003-04-15 07:29 51°14.05 2°41.2 -999 -999 -999 -999 -999
2003-04-15 07:30 51°14.05 2°41.19 -999 -999 -999 -999 -999
2003-04-15 07:31 51°14.07 2°41.19 -999 -999 -999 -999 -999
2003-04-15 07:32 51°14.08 2°41.19 -999 -999 -999 -999 -999
2003-04-15 07:33 51°14.09 2°41.19 -999 -999 -999 -999 -999
2003-04-15 07:34 51°14.1 2°41.19 -999 -999 -999 -999 -999
2003-04-15 07:35 51°14.1 2°41.21 -999 -999 -999 -999 -999
2003-04-15 07:36 51°14.09 2°41.23 -999 -999 -999 -999 -999
2003-04-15 07:37 51°14.06 2°41.24 -999 -999 -999 -999 -999
2003-04-15 07:38 51°14.03 2°41.23 -999 -999 -999 -999 -999
2003-04-15 07:39 51°13.99 2°41.2 -999 -999 -999 -999 -999
2003-04-15 07:40 51°13.95 2°41.15 -999 -999 -999 -999 -999
2003-04-15 07:41 51°13.91 2°41.1 -999 -999 -999 -999 -999
2003-04-15 07:42 51°13.88 2°41.06 -999 -999 -999 -999 -999
2003-04-15 07:43 51°13.85 2°41.01 -999 -999 -999 -999 -999
2003-04-15 07:44 51°13.83 2°40.96 -999 -999 -999 -999 -999
2003-04-15 07:45 51°13.81 2°40.91 -999 -999 -999 -999 -999
2003-04-15 07:46 51°13.79 2°40.86 -999 -999 -999 -999 -999
2003-04-15 07:47 51°13.77 2°40.81 -999 -999 -999 -999 -999
2003-04-15 07:48 51°13.75 2°40.76 -999 -999 -999 -999 -999
2003-04-15 07:49 51°13.77 2°40.62 -999 -999 -999 -999 -999
2003-04-15 07:50 51°13.89 2°40.44 -999 -999 -999 -999 -999
2003-04-15 07:51 51°14.05 2°40.29 -999 -999 -999 -999 -999
2003-04-15 07:52 51°14.21 2°40.22 -999 -999 -999 -999 -999
2003-04-15 07:53 51°14.39 2°40.2 -999 -999 -999 -999 -999
2003-04-15 07:54 51°14.56 2°40.19 -999 -999 -999 -999 -999
2003-04-15 07:55 51°14.73 2°40.19 -999 -999 -999 -999 -999
2003-04-15 07:56 51°14.9 2°40.21 -999 -999 -999 -999 -999
2003-04-15 07:57 51°15.07 2°40.24 -999 -999 -999 -999 -999
2003-04-15 07:58 51°15.24 2°40.27 -999 -999 -999 -999 -999
2003-04-15 07:59 51°15.41 2°40.31 -999 -999 -999 -999 -999
2003-04-15 08:00 51°15.57 2°40.34 -999 -999 -999 -999 -999
2003-04-15 08:01 51°15.74 2°40.37 -999 -999 -999 -999 -999
2003-04-15 08:02 51°15.9 2°40.4 -999 -999 -999 -999 -999
2003-04-15 08:03 51°16.06 2°40.44 -999 -999 -999 -999 -999
2003-04-15 08:04 51°16.22 2°40.5 -999 -999 -999 -999 -999
2003-04-15 08:05 51°16.37 2°40.57 -999 -999 -999 -999 -999
2003-04-15 08:06 51°16.52 2°40.68 -999 -999 -999 -999 -999
2003-04-15 08:07 51°16.66 2°40.79 -999 -999 -999 -999 -999
2003-04-15 08:08 51°16.81 2°40.9 -999 -999 -999 -999 -999
2003-04-15 08:09 51°16.95 2°41 -999 -999 -999 -999 -999
2003-04-15 08:10 51°17.1 2°41.12 -999 -999 -999 -999 -999
2003-04-15 08:11 51°17.18 2°41.2 -999 -999 -999 -999 -999
2003-04-15 08:12 51°17.23 2°41.23 -999 -999 -999 -999 -999
2003-04-15 08:13 51°17.24 2°41.27 -999 -999 -999 -999 -999
2003-04-15 08:14 51°17.26 2°41.28 -999 -999 -999 -999 -999
2003-04-15 08:15 51°17.26 2°41.26 -999 -999 -999 -999 -999
2003-04-15 08:16 51°17.27 2°41.24 -999 -999 -999 -999 -999
2003-04-15 08:17 51°17.27 2°41.22 -999 -999 -999 -999 -999
2003-04-15 08:18 51°17.28 2°41.2 -999 -999 -999 -999 -999
2003-04-15 08:19 51°17.29 2°41.18 -999 -999 -999 -999 -999
2003-04-15 08:20 51°17.3 2°41.17 -999 -999 -999 -999 -999
2003-04-15 08:21 51°17.32 2°41.17 -999 -999 -999 -999 -999
2003-04-15 08:22 51°17.32 2°41.19 -999 -999 -999 -999 -999
2003-04-15 08:23 51°17.33 2°41.21 -999 -999 -999 -999 -999
2003-04-15 08:24 51°17.33 2°41.23 -999 -999 -999 -999 -999
2003-04-15 08:25 51°17.32 2°41.25 -999 -999 -999 -999 -999
2003-04-15 08:26 51°17.31 2°41.26 -999 -999 -999 -999 -999
2003-04-15 08:27 51°17.3 2°41.27 -999 -999 -999 -999 -999
2003-04-15 08:28 51°17.3 2°41.26 -999 -999 -999 -999 -999
2003-04-15 08:29 51°17.29 2°41.25 -999 -999 -999 -999 -999
2003-04-15 08:30 51°17.29 2°41.24 -999 -999 -999 -999 -999
2003-04-15 08:31 51°17.28 2°41.23 -999 -999 -999 -999 -999
2003-04-15 08:32 51°17.28 2°41.21 -999 -999 -999 -999 -999
2003-04-15 08:33 51°17.27 2°41.2 -999 -999 -999 -999 -999
2003-04-15 08:34 51°17.27 2°41.19 -999 -999 -999 -999 -999
2003-04-15 08:35 51°17.26 2°41.18 -999 -999 -999 -999 -999
2003-04-15 08:36 51°17.25 2°41.18 -999 -999 -999 -999 -999
2003-04-15 08:37 51°17.24 2°41.2 -999 -999 -999 -999 -999
2003-04-15 08:38 51°17.24 2°41.28 -999 -999 -999 -999 -999
2003-04-15 08:39 51°17.24 2°41.3 -999 -999 -999 -999 -999
2003-04-15 08:40 51°17.24 2°41.33 -999 -999 -999 -999 -999
2003-04-15 08:41 51°17.24 2°41.35 -999 -999 -999 -999 -999
2003-04-15 08:42 51°17.22 2°41.37 -999 -999 -999 -999 -999
2003-04-15 08:43 51°17.19 2°41.38 -999 -999 -999 -999 -999
2003-04-15 08:44 51°17.15 2°41.37 -999 -999 -999 -999 -999
2003-04-15 08:45 51°17.11 2°41.35 -999 -999 -999 -999 -999
2003-04-15 08:46 51°17.08 2°41.31 -999 -999 -999 -999 -999
2003-04-15 08:47 51°17.06 2°41.26 -999 -999 -999 -999 -999
2003-04-15 08:48 51°17.04 2°41.16 -999 -999 -999 -999 -999
2003-04-15 08:49 51°17.1 2°40.93 -999 -999 -999 -999 -999
2003-04-15 08:50 51°17.24 2°40.79 -999 -999 -999 -999 -999
2003-04-15 08:51 51°17.4 2°40.77 -999 -999 -999 -999 -999
2003-04-15 08:52 51°17.57 2°40.77 -999 -999 -999 -999 -999
2003-04-15 08:53 51°17.74 2°40.77 -999 -999 -999 -999 -999
2003-04-15 08:54 51°17.9 2°40.77 -999 -999 -999 -999 -999
2003-04-15 08:55 51°18.07 2°40.77 -999 -999 -999 -999 -999
2003-04-15 08:56 51°18.26 2°40.77 -999 -999 -999 -999 -999
2003-04-15 08:57 51°18.44 2°40.77 -999 -999 -999 -999 -999
2003-04-15 08:58 51°18.57 2°40.76 -999 -999 -999 -999 -999
2003-04-15 08:59 51°18.65 2°40.76 -999 -999 -999 -999 -999
2003-04-15 09:00 51°18.7 2°40.76 -999 -999 -999 -999 -999
2003-04-15 09:01 51°18.72 2°40.77 -999 -999 -999 -999 -999
2003-04-15 09:02 51°18.74 2°40.78 -999 -999 -999 -999 -999
2003-04-15 09:03 51°18.75 2°40.8 -999 -999 -999 -999 -999
2003-04-15 09:04 51°18.75 2°40.81 -999 -999 -999 -999 -999
2003-04-15 09:05 51°18.76 2°40.83 -999 -999 -999 -999 -999
2003-04-15 09:06 51°18.76 2°40.85 -999 -999 -999 -999 -999
2003-04-15 09:07 51°18.76 2°40.86 -999 -999 -999 -999 -999
2003-04-15 09:08 51°18.77 2°40.87 -999 -999 -999 -999 -999
2003-04-15 09:09 51°18.77 2°40.88 -999 -999 -999 -999 -999
2003-04-15 09:10 51°18.77 2°40.89 -999 -999 -999 -999 -999
2003-04-15 09:11 51°18.77 2°40.9 -999 -999 -999 -999 -999
2003-04-15 09:12 51°18.78 2°40.92 -999 -999 -999 -999 -999
2003-04-15 09:13 51°18.78 2°40.93 -999 -999 -999 -999 -999
2003-04-15 09:14 51°18.78 2°40.94 -999 -999 -999 -999 -999
2003-04-15 09:15 51°18.83 2°41.04 -999 -999 -999 -999 -999
2003-04-15 09:16 51°18.87 2°41.31 -999 -999 -999 -999 -999
2003-04-15 09:17 51°18.88 2°41.61 -999 -999 -999 -999 -999
2003-04-15 09:18 51°18.88 2°41.91 -999 -999 -999 -999 -999
2003-04-15 09:19 51°18.93 2°42.19 -999 -999 -999 -999 -999
2003-04-15 09:20 51°18.98 2°42.46 -999 -999 -999 -999 -999
2003-04-15 09:21 51°19.02 2°42.75 -999 -999 -999 -999 -999
2003-04-15 09:22 51°19.04 2°43.04 -999 -999 -999 -999 -999
2003-04-15 09:23 51°19.03 2°43.32 -999 -999 -999 -999 -999
2003-04-15 09:24 51°19.01 2°43.61 -999 -999 -999 -999 -999
2003-04-15 09:25 51°18.93 2°43.75 -999 -999 -999 -999 -999
2003-04-15 09:26 51°18.89 2°43.71 -999 -999 -999 -999 -999
2003-04-15 09:27 51°18.89 2°43.73 -999 -999 -999 -999 -999
2003-04-15 09:28 51°18.89 2°43.74 -999 -999 -999 -999 -999
2003-04-15 09:29 51°18.9 2°43.75 -999 -999 -999 -999 -999
2003-04-15 09:30 51°18.9 2°43.74 -999 -999 -999 -999 -999
2003-04-15 09:31 51°18.89 2°43.73 -999 -999 -999 -999 -999
2003-04-15 09:32 51°18.89 2°43.71 -999 -999 -999 -999 -999
2003-04-15 09:33 51°18.88 2°43.69 -999 -999 -999 -999 -999
2003-04-15 09:34 51°18.86 2°43.69 -999 -999 -999 -999 -999
2003-04-15 09:35 51°18.84 2°43.68 -999 -999 -999 -999 -999
2003-04-15 09:36 51°18.82 2°43.68 -999 -999 -999 -999 -999
2003-04-15 09:37 51°18.8 2°43.69 -999 -999 -999 -999 -999
2003-04-15 09:38 51°18.78 2°43.71 -999 -999 -999 -999 -999
2003-04-15 09:39 51°18.77 2°43.73 -999 -999 -999 -999 -999
2003-04-15 09:40 51°18.76 2°43.76 -999 -999 -999 -999 -999
2003-04-15 09:41 51°18.76 2°43.8 -999 -999 -999 -999 -999
2003-04-15 09:42 51°18.76 2°43.83 -999 -999 -999 -999 -999
2003-04-15 09:43 51°18.77 2°43.87 -999 -999 -999 -999 -999
2003-04-15 09:44 51°18.78 2°43.9 -999 -999 -999 -999 -999
2003-04-15 09:45 51°18.79 2°43.93 -999 -999 -999 -999 -999
2003-04-15 09:46 51°18.81 2°43.95 -999 -999 -999 -999 -999
2003-04-15 09:47 51°18.83 2°43.97 -999 -999 -999 -999 -999
2003-04-15 09:48 51°18.85 2°43.99 -999 -999 -999 -999 -999
2003-04-15 09:49 51°18.87 2°44 -999 -999 -999 -999 -999
2003-04-15 09:50 51°18.89 2°44.01 -999 -999 -999 -999 -999
2003-04-15 09:51 51°18.91 2°44.02 -999 -999 -999 -999 -999
2003-04-15 09:52 51°18.93 2°44.03 -999 -999 -999 -999 -999
2003-04-15 09:53 51°18.95 2°44.03 -999 -999 -999 -999 -999
2003-04-15 09:54 51°18.97 2°44.02 -999 -999 -999 -999 -999
2003-04-15 09:55 51°19 2°44.01 -999 -999 -999 -999 -999
2003-04-15 09:56 51°19.03 2°44.02 -999 -999 -999 -999 -999
2003-04-15 09:57 51°19.06 2°44.03 -999 -999 -999 -999 -999
2003-04-15 09:58 51°19.09 2°44.06 -999 -999 -999 -999 -999
2003-04-15 09:59 51°19.11 2°44.08 -999 -999 -999 -999 -999
2003-04-15 10:00 51°19.14 2°44.1 -999 -999 -999 -999 -999
2003-04-15 10:01 51°19.16 2°44.13 -999 -999 -999 -999 -999
2003-04-15 10:02 51°19.18 2°44.15 -999 -999 -999 -999 -999
2003-04-15 10:03 51°19.2 2°44.18 -999 -999 -999 -999 -999
2003-04-15 10:04 51°19.22 2°44.2 -999 -999 -999 -999 -999
2003-04-15 10:05 51°19.24 2°44.23 -999 -999 -999 -999 -999
2003-04-15 10:06 51°19.26 2°44.25 -999 -999 -999 -999 -999
2003-04-15 10:07 51°19.28 2°44.28 -999 -999 -999 -999 -999
2003-04-15 10:08 51°19.29 2°44.33 -999 -999 -999 -999 -999
2003-04-15 10:09 51°19.3 2°44.38 -999 -999 -999 -999 -999
2003-04-15 10:10 51°19.3 2°44.42 -999 -999 -999 -999 -999
2003-04-15 10:11 51°19.3 2°44.45 -999 -999 -999 -999 -999
2003-04-15 10:12 51°19.28 2°44.48 -999 -999 -999 -999 -999
2003-04-15 10:13 51°19.24 2°44.51 -999 -999 -999 -999 -999
2003-04-15 10:14 51°19.19 2°44.54 -999 -999 -999 -999 -999
2003-04-15 10:15 51°19.14 2°44.57 -999 -999 -999 -999 -999
2003-04-15 10:16 51°19.08 2°44.61 -999 -999 -999 -999 -999
2003-04-15 10:17 51°19.03 2°44.64 -999 -999 -999 -999 -999
2003-04-15 10:18 51°18.97 2°44.67 -999 -999 -999 -999 -999
2003-04-15 10:19 51°18.91 2°44.71 -999 -999 -999 -999 -999
2003-04-15 10:20 51°18.85 2°44.75 -999 -999 -999 -999 -999
2003-04-15 10:21 51°18.79 2°44.79 -999 -999 -999 -999 -999
2003-04-15 10:22 51°18.72 2°44.82 -999 -999 -999 -999 -999
2003-04-15 10:23 51°18.66 2°44.84 -999 -999 -999 -999 -999
2003-04-15 10:24 51°18.6 2°44.88 -999 -999 -999 -999 -999
2003-04-15 10:25 51°18.54 2°44.91 -999 -999 -999 -999 -999
2003-04-15 10:26 51°18.48 2°44.94 -999 -999 -999 -999 -999
2003-04-15 10:27 51°18.42 2°44.94 -999 -999 -999 -999 -999
2003-04-15 10:28 51°18.38 2°44.9 -999 -999 -999 -999 -999
2003-04-15 10:29 51°18.34 2°44.86 -999 -999 -999 -999 -999
2003-04-15 10:30 51°18.29 2°44.83 -999 -999 -999 -999 -999
2003-04-15 10:31 51°18.25 2°44.8 -999 -999 -999 -999 -999
2003-04-15 10:32 51°18.21 2°44.76 -999 -999 -999 -999 -999
2003-04-15 10:33 51°18.17 2°44.71 -999 -999 -999 -999 -999
2003-04-15 10:34 51°18.14 2°44.66 -999 -999 -999 -999 -999
2003-04-15 10:35 51°18.09 2°44.64 -999 -999 -999 -999 -999
2003-04-15 10:36 51°18.04 2°44.61 -999 -999 -999 -999 -999
2003-04-15 10:37 51°18 2°44.6 -999 -999 -999 -999 -999
2003-04-15 10:38 51°17.96 2°44.59 -999 -999 -999 -999 -999
2003-04-15 10:39 51°17.92 2°44.59 -999 -999 -999 -999 -999
2003-04-15 10:40 51°17.88 2°44.6 -999 -999 -999 -999 -999
2003-04-15 10:41 51°17.85 2°44.6 -999 -999 -999 -999 -999
2003-04-15 10:42 51°17.81 2°44.6 -999 -999 -999 -999 -999
2003-04-15 10:43 51°17.78 2°44.59 -999 -999 -999 -999 -999
2003-04-15 10:44 51°17.76 2°44.59 -999 -999 -999 -999 -999
2003-04-15 10:45 51°17.73 2°44.57 -999 -999 -999 -999 -999
2003-04-15 10:46 51°17.71 2°44.56 -999 -999 -999 -999 -999
2003-04-15 10:47 51°17.69 2°44.54 -999 -999 -999 -999 -999
2003-04-15 10:48 51°17.67 2°44.53 -999 -999 -999 -999 -999
2003-04-15 10:49 51°17.64 2°44.52 -999 -999 -999 -999 -999
2003-04-15 10:50 51°17.61 2°44.52 -999 -999 -999 -999 -999
2003-04-15 10:51 51°17.58 2°44.51 -999 -999 -999 -999 -999
2003-04-15 10:52 51°17.56 2°44.5 -999 -999 -999 -999 -999
2003-04-15 10:53 51°17.54 2°44.49 -999 -999 -999 -999 -999
2003-04-15 10:54 51°17.52 2°44.47 -999 -999 -999 -999 -999
2003-04-15 10:55 51°17.5 2°44.45 -999 -999 -999 -999 -999
2003-04-15 10:56 51°17.49 2°44.43 -999 -999 -999 -999 -999
2003-04-15 10:57 51°17.48 2°44.43 -999 -999 -999 -999 -999
2003-04-15 10:58 51°17.47 2°44.43 -999 -999 -999 -999 -999
2003-04-15 10:59 51°17.47 2°44.44 -999 -999 -999 -999 -999
2003-04-15 11:00 51°17.46 2°44.45 -999 -999 -999 -999 -999
2003-04-15 11:01 51°17.46 2°44.46 -999 -999 -999 -999 -999
2003-04-15 11:02 51°17.45 2°44.47 -999 -999 -999 -999 -999
2003-04-15 11:03 51°17.45 2°44.49 -999 -999 -999 -999 -999
2003-04-15 11:04 51°17.44 2°44.51 -999 -999 -999 -999 -999
2003-04-15 11:05 51°17.44 2°44.53 -999 -999 -999 -999 -999
2003-04-15 11:06 51°17.43 2°44.55 -999 -999 -999 -999 -999
2003-04-15 11:07 51°17.43 2°44.56 -999 -999 -999 -999 -999
2003-04-15 11:08 51°17.43 2°44.56 -999 -999 -999 -999 -999
2003-04-15 11:09 51°17.44 2°44.56 -999 -999 -999 -999 -999
2003-04-15 11:10 51°17.47 2°44.51 -999 -999 -999 -999 -999
2003-04-15 11:11 51°17.49 2°44.43 -999 -999 -999 -999 -999
2003-04-15 11:12 51°17.5 2°44.39 -999 -999 -999 -999 -999
2003-04-15 11:13 51°17.52 2°44.41 -999 -999 -999 -999 -999
2003-04-15 11:14 51°17.53 2°44.42 -999 -999 -999 -999 -999
2003-04-15 11:15 51°17.54 2°44.44 -999 -999 -999 -999 -999
2003-04-15 11:16 51°17.56 2°44.46 -999 -999 -999 -999 -999
2003-04-15 11:17 51°17.57 2°44.48 -999 -999 -999 -999 -999
2003-04-15 11:18 51°17.59 2°44.5 -999 -999 -999 -999 -999
2003-04-15 11:19 51°17.6 2°44.52 -999 -999 -999 -999 -999
2003-04-15 11:20 51°17.62 2°44.53 -999 -999 -999 -999 -999
2003-04-15 11:21 51°17.65 2°44.55 -999 -999 -999 -999 -999
2003-04-15 11:22 51°17.68 2°44.56 -999 -999 -999 -999 -999
2003-04-15 11:23 51°17.71 2°44.59 -999 -999 -999 -999 -999
2003-04-15 11:24 51°17.75 2°44.61 -999 -999 -999 -999 -999
2003-04-15 11:25 51°17.78 2°44.64 -999 -999 -999 -999 -999
2003-04-15 11:26 51°17.81 2°44.67 -999 -999 -999 -999 -999
2003-04-15 11:27 51°17.84 2°44.71 -999 -999 -999 -999 -999
2003-04-15 11:28 51°17.88 2°44.74 -999 -999 -999 -999 -999
2003-04-15 11:29 51°18 2°44.86 -999 -999 -999 -999 -999
2003-04-15 11:30 51°18.19 2°45.09 -999 -999 -999 -999 -999
2003-04-15 11:31 51°18.37 2°45.38 -999 -999 -999 -999 -999
2003-04-15 11:32 51°18.56 2°45.66 -999 -999 -999 -999 -999
2003-04-15 11:33 51°18.75 2°45.93 -999 -999 -999 -999 -999
2003-04-15 11:34 51°18.94 2°46.19 -999 -999 -999 -999 -999
2003-04-15 11:35 51°19.12 2°46.47 -999 -999 -999 -999 -999
2003-04-15 11:36 51°19.3 2°46.76 -999 -999 -999 -999 -999
2003-04-15 11:37 51°19.45 2°46.92 -999 -999 -999 -999 -999
2003-04-15 11:38 51°19.52 2°47.05 -999 -999 -999 -999 -999
2003-04-15 11:39 51°19.52 2°47.18 -999 -999 -999 -999 -999
2003-04-15 11:40 51°19.5 2°47.26 -999 -999 -999 -999 -999
2003-04-15 11:41 51°19.46 2°47.28 -999 -999 -999 -999 -999
2003-04-15 11:42 51°19.42 2°47.23 -999 -999 -999 -999 -999
2003-04-15 11:43 51°19.39 2°47.16 -999 -999 -999 -999 -999
2003-04-15 11:44 51°19.36 2°47.08 -999 -999 -999 -999 -999
2003-04-15 11:45 51°19.34 2°47 -999 -999 -999 -999 -999
2003-04-15 11:46 51°19.31 2°46.93 -999 -999 -999 -999 -999
2003-04-15 11:47 51°19.28 2°46.86 -999 -999 -999 -999 -999
2003-04-15 11:48 51°19.27 2°46.81 -999 -999 -999 -999 -999
2003-04-15 11:49 51°19.25 2°46.75 -999 -999 -999 -999 -999
2003-04-15 11:50 51°19.23 2°46.7 -999 -999 -999 -999 -999
2003-04-15 11:51 51°19.2 2°46.66 -999 -999 -999 -999 -999
2003-04-15 11:52 51°19.18 2°46.61 -999 -999 -999 -999 -999
2003-04-15 11:53 51°19.17 2°46.56 -999 -999 -999 -999 -999
2003-04-15 11:54 51°19.14 2°46.51 -999 -999 -999 -999 -999
2003-04-15 11:55 51°19.11 2°46.47 -999 -999 -999 -999 -999
2003-04-15 11:56 51°19.09 2°46.43 -999 -999 -999 -999 -999
2003-04-15 11:57 51°19.07 2°46.38 -999 -999 -999 -999 -999
2003-04-15 11:58 51°19.05 2°46.34 -999 -999 -999 -999 -999
2003-04-15 11:59 51°19.03 2°46.29 -999 -999 -999 -999 -999
2003-04-15 12:00 51°19.01 2°46.24 -999 -999 -999 -999 -999
2003-04-15 12:01 51°18.99 2°46.19 -999 -999 -999 -999 -999
2003-04-15 12:02 51°18.97 2°46.13 -999 -999 -999 -999 -999
2003-04-15 12:03 51°18.96 2°46.08 -999 -999 -999 -999 -999
2003-04-15 12:04 51°18.93 2°46.04 -999 -999 -999 -999 -999
2003-04-15 12:05 51°18.91 2°46 -999 -999 -999 -999 -999
2003-04-15 12:06 51°18.88 2°45.96 -999 -999 -999 -999 -999
2003-04-15 12:07 51°18.85 2°45.92 -999 -999 -999 -999 -999
2003-04-15 12:08 51°18.83 2°45.87 -999 -999 -999 -999 -999
2003-04-15 12:09 51°18.8 2°45.83 -999 -999 -999 -999 -999
2003-04-15 12:10 51°18.77 2°45.8 -999 -999 -999 -999 -999
2003-04-15 12:11 51°18.75 2°45.75 -999 -999 -999 -999 -999
2003-04-15 12:12 51°18.73 2°45.71 -999 -999 -999 -999 -999
2003-04-15 12:13 51°18.69 2°45.68 -999 -999 -999 -999 -999
2003-04-15 12:14 51°18.66 2°45.65 -999 -999 -999 -999 -999
2003-04-15 12:15 51°18.63 2°45.61 -999 -999 -999 -999 -999
2003-04-15 12:16 51°18.61 2°45.56 -999 -999 -999 -999 -999
2003-04-15 12:17 51°18.6 2°45.51 -999 -999 -999 -999 -999
2003-04-15 12:18 51°18.6 2°45.47 -999 -999 -999 -999 -999
2003-04-15 12:19 51°18.61 2°45.43 -999 -999 -999 -999 -999
2003-04-15 12:20 51°18.63 2°45.39 -999 -999 -999 -999 -999
2003-04-15 12:21 51°18.66 2°45.35 -999 -999 -999 -999 -999
2003-04-15 12:22 51°18.69 2°45.33 -999 -999 -999 -999 -999
2003-04-15 12:23 51°18.72 2°45.32 -999 -999 -999 -999 -999
2003-04-15 12:24 51°18.75 2°45.32 -999 -999 -999 -999 -999
2003-04-15 12:25 51°18.78 2°45.33 -999 -999 -999 -999 -999
2003-04-15 12:26 51°18.8 2°45.34 -999 -999 -999 -999 -999
2003-04-15 12:27 51°18.83 2°45.35 -999 -999 -999 -999 -999
2003-04-15 12:28 51°18.89 2°45.41 -999 -999 -999 -999 -999
2003-04-15 12:29 51°18.88 2°45.61 -999 -999 -999 -999 -999
2003-04-15 12:30 51°18.74 2°45.89 -999 -999 -999 -999 -999
2003-04-15 12:31 51°18.57 2°46.15 -999 -999 -999 -999 -999
2003-04-15 12:32 51°18.4 2°46.4 -999 -999 -999 -999 -999
2003-04-15 12:33 51°18.23 2°46.65 -999 -999 -999 -999 -999
2003-04-15 12:34 51°18.07 2°46.91 -999 -999 -999 -999 -999
2003-04-15 12:35 51°17.91 2°47.18 -999 -999 -999 -999 -999
2003-04-15 12:36 51°17.75 2°47.45 -999 -999 -999 -999 -999
2003-04-15 12:37 51°17.59 2°47.71 -999 -999 -999 -999 -999
2003-04-15 12:38 51°17.45 2°47.99 -999 -999 -999 -999 -999
2003-04-15 12:39 51°17.3 2°48.28 -999 -999 -999 -999 -999
2003-04-15 12:40 51°17.15 2°48.56 -999 -999 -999 -999 -999
2003-04-15 12:41 51°17.01 2°48.86 -999 -999 -999 -999 -999
2003-04-15 12:42 51°16.87 2°49.15 -999 -999 -999 -999 -999
2003-04-15 12:43 51°16.72 2°49.44 -999 -999 -999 -999 -999
2003-04-15 12:44 51°16.58 2°49.74 -999 -999 -999 -999 -999
2003-04-15 12:45 51°16.43 2°50.04 -999 -999 -999 -999 -999
2003-04-15 12:46 51°16.29 2°50.33 -999 -999 -999 -999 -999
2003-04-15 12:47 51°16.14 2°50.63 -999 -999 -999 -999 -999
2003-04-15 12:48 51°15.99 2°50.92 -999 -999 -999 -999 -999
2003-04-15 12:49 51°15.85 2°51.22 -999 -999 -999 -999 -999
2003-04-15 12:50 51°15.7 2°51.51 -999 -999 -999 -999 -999
2003-04-15 12:51 51°15.55 2°51.81 -999 -999 -999 -999 -999
2003-04-15 12:52 51°15.4 2°52.11 -999 -999 -999 -999 -999
2003-04-15 12:53 51°15.26 2°52.41 -999 -999 -999 -999 -999
2003-04-15 12:54 51°15.14 2°52.73 -999 -999 -999 -999 -999
2003-04-15 12:55 51°15.02 2°53.06 -999 -999 -999 -999 -999
2003-04-15 12:56 51°14.9 2°53.38 -999 -999 -999 -999 -999
2003-04-15 12:57 51°14.78 2°53.69 -999 -999 -999 -999 -999
2003-04-15 12:58 51°14.68 2°53.99 -999 -999 -999 -999 -999
2003-04-15 12:59 51°14.57 2°54.29 -999 -999 -999 -999 -999